Regional Weather Roundup
Issued by NWS Midland/Odessa, TX

Skip options and go directly to product.
Home | Oldest Version | Previous Version | Current Version | All | Text Only | Save Text | Print | Product List | Glossary Off

Skip product version selection by date and time.   

384
ASUS44 KMAF 210510
RWRMAF
MIDLAND AREA WEATHER ROUNDUP
NATIONAL WEATHER SERVICE MIDLAND TX
1200 AM CDT TUE OCT 21 2014

...IN SOUTHWEST TEXAS AND SOUTHEAST NEW MEXICO...

CITY           SKY/WX    TMP DP  RH WIND       PRES   REMARKS
ALPINE         MOCLDY    60  56  87 SE3       30.17F
ANDREWS        FAIR      61  52  72 CALM      30.11F
ARTESIA        NOT AVBL
BIG SPRING     CLEAR     65  51  61 E8        30.11S
CARLSBAD       CLOUDY    62  60  93 N5        30.10S
DRYDEN           N/A     65  61  87 N6        30.05S
FORT STOCKTON  MOCLDY    64  59  83 SE13      30.07F
GUAD PASS      PTCLDY    54  53  97 NE29      30.15S
HOBBS          CLOUDY    59  59 100 CALM      30.13S
MARFA          CLOUDY    57  55  94 NE6       30.15F
MIDLAND AIRPK  MOCLDY    67  53  62 SE5       30.10S
MIDLAND INTL   MOCLDY    66  52  60 SE8       30.09S
ODESSA         MOCLDY    66  51  58 SE8       30.10F
PECOS          MOCLDY    64  62  94 CALM      30.07S FOG
PRESIDIO       CLOUDY    67  59  74 NE8       30.03S
SEMINOLE       PTCLDY    60  52  75 SE6       30.13S
SNYDER         MOCLDY    64  53  67 SE8       30.10S
WINK           MOCLDY    63  62  97 NE5       30.07S
$$
...OTHER STATIONS IN TEXAS...

CITY           SKY/WX    TMP DP  RH WIND       PRES   REMARKS
ABILENE        PTCLDY    63  53  70 S6        30.07F
AMARILLO       PTCLDY    58  51  78 S6        30.12F
AUSTIN         PTCLDY    61  59  93 CALM      30.04S
BROWNSVILLE    PTCLDY    75  69  81 NE3       29.94S
CORPUS CHRISTI PTCLDY    75  70  84 E9        29.97F
DALLAS FTW     PTCLDY    67  59  75 SE3       30.04F
DEL RIO        CLOUDY    72  60  66 E6        30.01R
EL PASO        PTCLDY    62  55  77 N8        30.08R
HOUSTON INT    MOCLDY    64  58  80 NE5       30.02F
LUBBOCK        PTCLDY    59  52  77 S5        30.11S
SAN ANGELO     CLEAR     61  51  70 SE3       30.07S
SAN ANTONIO    MOCLDY    70  59  68 NE5       30.04S
WACO           CLEAR     60  58  92 CALM      30.05F
WICHITA FALLS  NOT AVBL
$$
...OTHER LOCATIONS IN NEW MEXICO...

CITY           SKY/WX    TMP DP  RH WIND       PRES   REMARKS
ALAMAGORDO     NOT AVBL
ALBUQUERQUE    CLOUDY    59  46  62 NE6       30.18S
CANNON AFB     PTCLDY    55  52  89 N6        30.15F
CLOVIS         PTCLDY    55  50  82 NW3       30.18S
HOLLOMAN AFB   MOCLDY    60  55  85 CALM      30.09F
ROSWELL        LGT RAIN  59  56  89 N3        30.13S
RUIDOSO        LGT RAIN  46  46 100 CALM      30.28F
SANTA FE       MOCLDY    51  47  86 CALM      30.23S
TRUTH OR CONSE CLOUDY    58  53  84 CALM      30.14S
TUCUMCARI      PTCLDY    59  50  72 W8        30.12F
$$

USA.gov is the U.S. government's official web portal to all federal, state and local government web resources and services.